Location: Argonnex
(45.9500°N, 6.1333°E)
Time: 14:28:05
(UTC+00:00)

Cosmos 2266 Rocket - Visible Passes

Search period start: 27 September 2023 00:00
Search period end: 07 October 2023 00:00
Orbit: 935 x 1006 km, 82.9° (Epoch: 26 September)

Date Brightness Start Highest point End Pass type
(mag) Time Alt. Az. Time Alt. Az. Time Alt. Az.
27 Sep 6.7 01:05:12 10° E 01:06:29 11° ENE 01:07:46 10° ENE visible
27 Sep 4.2 02:47:39 34° SSE 02:50:28 68° E 02:56:49 10° NNE visible
27 Sep 5.2 04:32:16 12° WSW 04:36:22 22° WNW 04:41:15 10° NNW visible
28 Sep 6.1 01:27:37 16° ESE 01:29:54 19° E 01:34:12 10° NE visible
28 Sep 3.9 03:12:13 43° SSW 03:14:25 74° W 03:20:50 10° N visible
28 Sep 5.7 04:57:57 10° W 05:00:56 13° WNW 05:03:57 10° NNW visible
29 Sep 5.4 01:52:06 30° ESE 01:53:27 33° E 01:59:02 10° NNE visible
29 Sep 4.3 03:36:42 36° WSW 03:38:33 44° WNW 03:44:39 10° N visible
30 Sep 4.5 02:16:33 53° ESE 02:17:11 55° E 02:23:24 10° NNE visible
30 Sep 4.9 04:01:08 24° W 04:02:50 27° WNW 04:08:12 10° N visible
01 Oct 6.3 00:56:19 15° E 00:56:46 16° ENE 01:00:17 10° NE visible
01 Oct 3.9 02:40:55 86° SSW 02:41:04 90° WNW 02:47:31 10° N visible
01 Oct 5.5 04:25:31 15° W 04:27:19 17° WNW 04:31:18 10° NNW visible
02 Oct 5.7 01:20:40 26° ENE 01:20:40 26° ENE 01:25:25 10° NNE visible
02 Oct 4.1 03:05:15 55° WNW 03:05:15 55° WNW 03:11:25 10° N visible
03 Oct 5.1 01:44:58 41° ENE 01:44:58 41° ENE 01:49:57 10° NNE visible
03 Oct 4.7 03:29:33 33° WNW 03:29:33 33° WNW 03:35:05 10° N visible
04 Oct 6.6 00:24:38 12° ENE 00:24:38 12° ENE 00:25:58 10° NE visible
04 Oct 4.6 02:09:14 54° NNE 02:09:14 54° NNE 02:14:08 10° NNE visible
04 Oct 5.3 03:53:49 21° WNW 03:53:49 21° WNW 03:58:25 10° NNW visible
05 Oct 6.2 00:48:53 19° ENE 00:48:53 19° ENE 00:51:43 10° NE visible
05 Oct 4.6 02:33:28 48° NNW 02:33:28 48° NNW 02:38:08 10° N visible
05 Oct 5.8 04:18:03 12° WNW 04:18:19 12° WNW 04:20:53 10° NW visible
06 Oct 5.8 01:13:05 27° NE 01:13:05 27° NE 01:16:26 10° NNE visible
06 Oct 5.0 02:57:40 34° NW 02:57:40 34° NW 03:01:53 10° N visible
